Location: Newark
(49.8348°N, 24.0280°E)
Time: 18:41:50
(UTC+00:00)

Transit 2A - Pass Details

Date: 25 January 2020
Orbit: 599 x 959 km, 66.7° (Epoch: 25 February)

Event Time Altitude Azimuth Distance (km) Brightness Sun altitude
Rises 01:24:12 0° 327° (NNW) 2,919 - -44.7°
Reaches altitude 10° 01:26:42 10° 339° (NNW) 2,046 - -44.3°
Maximum altitude 01:30:40 28° 39° (NE) 1,271 - -43.7°
Drops below altitude 10° 01:34:56 10° 98° (E) 2,203 - -43.1°
Exits shadow 01:35:41 - 102° (ESE) 2,459 9.1 -43.0°
Sets 01:37:43 0° 110° (ESE) 3,188 9.7 -42.7°
